Lacon, IL

10:56 AM CDT on April 26, 2017 (GMT -0500)
Lacon

Weather History for KC75 - March, 2013

Change the Weather History Date:

Tuesday, March 26, 2013

  Actual Average (KVYS) Record (KVYS)
Temperature  
Mean Temperature 34 °F -  
Max Temperature 37 °F 50 °F 78 °F (2007)
Min Temperature 31 °F 31 °F 11 °F (1965)
Degree Days  
Heating Degree Days 31    
Moisture  
Dew Point 25 °F    
Average Humidity 71    
Maximum Humidity 80    
Minimum Humidity 57    
Precipitation  
Precipitation 0.00 in - - ()
Sea Level Pressure  
Sea Level Pressure 30.22 in    
Wind  
Wind Speed 6 mph (NW)    
Max Wind Speed 15 mph    
Max Gust Speed 18 mph    
Visibility 10 miles    
Events      
Averages and records for this station are not official NWS values.
T = Trace of Precipitation, MM = Missing Value Source: NWS Daily Summary

Daily Weather History Graph

Daily Weather History Graph

Search for Another Location

Airport or City:

Trip Planner

Search our weather history database for the weather conditions in past years. The results will help you decide how hot, cold, wet, or windy it might be!

Date:

Astronomy

Mar. 26, 2013 Rise Set
Actual Time 6:50 AM CDT 7:16 PM CDT
Civil Twilight 6:22 AM CDT 7:43 PM CDT
Nautical Twilight 5:50 AM CDT 8:16 PM CDT
Astronomical Twilight 5:17 AM CDT 8:49 PM CDT
Moon 6:53 PM CDT 6:06 AM CDT
Length of Visible Light 13h 21m
Length of Day
12h 25m
Waxing Gibbous, 99% of the Moon is Illuminated
Mar 26
Waxing Gibbous
Mar 27
Full
Apr 2
Last Quarter
Apr 10
New
Apr 18
First Quarter

Hourly Weather History & Observations

Time (CDT) Temp. Windchill Dew Point Humidity Pressure Visibility Wind Dir Wind Speed Gust Speed Precip Events Conditions
12:15 AM 32.4 °F - 26.2 °F 78% 30.13 in 10.0 mi Calm Calm - N/A   Unknown
12:35 AM 32.2 °F 27.7 °F 26.2 °F 79% 30.13 in 10.0 mi NW 4.6 mph - N/A   Unknown
12:55 AM 32.2 °F 26.7 °F 26.4 °F 79% 30.13 in 10.0 mi NNW 5.8 mph - N/A   Unknown
1:15 AM 32.2 °F 27.7 °F 26.4 °F 79% 30.14 in 10.0 mi NW 4.6 mph - N/A   Unknown
1:35 AM 32.2 °F 27.7 °F 26.2 °F 79% 30.14 in 10.0 mi NNW 4.6 mph - N/A   Unknown
1:55 AM 32.0 °F 26.4 °F 26.2 °F 79% 30.14 in 10.0 mi NNW 5.8 mph - N/A   Unknown
2:15 AM 32.0 °F 26.4 °F 26.2 °F 79% 30.14 in 10.0 mi NNW 5.8 mph - N/A   Unknown
2:35 AM 32.0 °F 26.4 °F 26.2 °F 79% 30.14 in 10.0 mi NW 5.8 mph - N/A   Unknown
2:55 AM 32.0 °F 26.4 °F 26.2 °F 79% 30.14 in 10.0 mi NW 5.8 mph - N/A   Unknown
3:15 AM 32.0 °F 26.4 °F 25.9 °F 78% 30.14 in 10.0 mi NNW 5.8 mph - N/A   Unknown
3:35 AM 32.0 °F 26.4 °F 25.9 °F 78% 30.14 in 10.0 mi NW 5.8 mph - N/A   Unknown
3:55 AM 32.0 °F 26.4 °F 25.7 °F 78% 30.14 in 10.0 mi NNW 5.8 mph - N/A   Unknown
4:15 AM 32.0 °F 27.5 °F 25.7 °F 78% 30.14 in 10.0 mi NNW 4.6 mph - N/A   Unknown
4:35 AM 32.0 °F 25.6 °F 25.5 °F 77% 30.15 in 10.0 mi NW 6.9 mph - N/A   Unknown
4:55 AM 32.0 °F 25.6 °F 25.7 °F 78% 30.15 in 10.0 mi NW 6.9 mph - N/A   Unknown
5:15 AM 32.0 °F 24.2 °F 25.5 °F 77% 30.15 in 10.0 mi NW 9.2 mph - N/A   Unknown
5:35 AM 32.0 °F 24.2 °F 25.3 °F 76% 30.16 in 10.0 mi NW 9.2 mph - N/A   Unknown
5:55 AM 32.0 °F 25.6 °F 25.5 °F 77% 30.16 in 10.0 mi NW 6.9 mph - N/A   Unknown
6:15 AM 31.6 °F 25.1 °F 25.5 °F 78% 30.17 in 10.0 mi NW 6.9 mph - N/A   Unknown
6:35 AM 31.3 °F 27.9 °F 25.5 °F 79% 30.18 in 10.0 mi NW 3.5 mph - N/A   Unknown
6:55 AM 31.1 °F 24.5 °F 25.3 °F 79% 30.18 in 10.0 mi NW 6.9 mph - N/A   Unknown
7:15 AM 31.1 °F 25.4 °F 25.7 °F 80% 30.19 in 10.0 mi NW 5.8 mph - N/A   Unknown
7:35 AM 31.5 °F 24.9 °F 25.5 °F 79% 30.20 in 10.0 mi NW 6.9 mph - N/A   Unknown
7:55 AM 31.6 °F 24.4 °F 25.3 °F 78% 30.20 in 10.0 mi NW 8.1 mph - N/A   Unknown
8:15 AM 32.0 °F 24.2 °F 25.7 °F 78% 30.21 in 10.0 mi NW 9.2 mph - N/A   Unknown
8:35 AM 32.0 °F 24.2 °F 25.7 °F 78% 30.21 in 10.0 mi NW 9.2 mph - N/A   Unknown
8:55 AM 32.4 °F 25.3 °F 25.7 °F 76% 30.22 in 10.0 mi NW 8.1 mph - N/A   Unknown
9:15 AM 32.9 °F 26.7 °F 25.0 °F 73% 30.22 in 10.0 mi NW 6.9 mph - N/A   Unknown
9:35 AM 33.6 °F 26.8 °F 24.8 °F 70% 30.23 in 10.0 mi NW 8.1 mph - N/A   Unknown
9:55 AM 34.3 °F 26.5 °F 23.0 °F 63% 30.23 in 10.0 mi North 10.4 mph - N/A   Unknown
10:15 AM 35.1 °F 29.3 °F 21.9 °F 59% 30.23 in 10.0 mi North 6.9 mph - N/A   Unknown
10:35 AM 35.6 °F 28.0 °F 22.1 °F 58% 30.23 in 10.0 mi NNW 10.4 mph - N/A   Unknown
10:55 AM 36.0 °F 29.6 °F 22.5 °F 58% 30.24 in 10.0 mi NW 8.1 mph - N/A   Unknown
11:15 AM 35.1 °F 26.9 °F 25.0 °F 67% 30.24 in 10.0 mi NW 11.5 mph - N/A   Unknown
11:35 AM 35.6 °F 28.6 °F 26.1 °F 68% 30.24 in 10.0 mi WNW 9.2 mph - N/A   Unknown
11:55 AM 36.3 °F 28.0 °F 23.4 °F 59% 30.24 in 10.0 mi NW 12.7 mph - N/A   Unknown
12:15 PM 36.7 °F 29.4 °F 22.6 °F 57% 30.24 in 10.0 mi NW 10.4 mph - N/A   Unknown
12:35 PM 35.6 °F 29.2 °F 22.8 °F 60% 30.24 in 10.0 mi WNW 8.1 mph - N/A   Unknown
12:55 PM 36.3 °F 28.9 °F 23.4 °F 59% 30.25 in 10.0 mi WNW 10.4 mph - N/A   Unknown
1:15 PM 35.8 °F 28.8 °F 24.4 °F 63% 30.24 in 10.0 mi NW 9.2 mph - N/A   Unknown
1:35 PM 36.0 °F 29.0 °F 24.3 °F 63% 30.24 in 10.0 mi NW 9.2 mph - N/A   Unknown
1:55 PM 36.1 °F 28.2 °F 23.9 °F 61% 30.24 in 10.0 mi NW 11.5 mph 16.1 mph N/A   Unknown
2:15 PM 36.3 °F 29.5 °F 24.3 °F 62% 30.24 in 10.0 mi NW 9.2 mph - N/A   Unknown
2:35 PM 36.5 °F 28.7 °F 24.8 °F 63% 30.24 in 10.0 mi NW 11.5 mph - N/A   Unknown
2:55 PM 36.9 °F 27.8 °F 24.6 °F 61% 30.24 in 10.0 mi NNW 15.0 mph 18.4 mph N/A   Unknown
3:15 PM 36.5 °F 28.2 °F 24.1 °F 61% 30.24 in 10.0 mi NW 12.7 mph 18.4 mph N/A   Unknown
3:35 PM 37.4 °F 30.8 °F 24.4 °F 60% 30.24 in 10.0 mi NW 9.2 mph - N/A   Unknown
3:55 PM 36.9 °F 31.4 °F 24.6 °F 61% 30.24 in 10.0 mi NW 6.9 mph 16.1 mph N/A   Unknown
4:15 PM 36.7 °F 30.5 °F 25.2 °F 63% 30.24 in 10.0 mi NW 8.1 mph - N/A   Unknown
4:35 PM 36.9 °F 31.4 °F 25.0 °F 62% 30.24 in 10.0 mi NW 6.9 mph - N/A   Unknown
4:55 PM 36.7 °F 31.2 °F 25.7 °F 64% 30.24 in 10.0 mi NW 6.9 mph - N/A   Unknown
5:15 PM 36.7 °F 28.4 °F 25.5 °F 64% 30.24 in 10.0 mi WNW 12.7 mph 16.1 mph N/A   Unknown
5:35 PM 36.5 °F 28.7 °F 25.7 °F 65% 30.24 in 10.0 mi WNW 11.5 mph - N/A   Unknown
5:55 PM 36.5 °F 31.8 °F 27.0 °F 68% 30.25 in 10.0 mi WNW 5.8 mph - N/A   Unknown
6:15 PM 36.5 °F 29.7 °F 26.8 °F 68% 30.25 in 10.0 mi NW 9.2 mph - N/A   Unknown
6:35 PM 36.0 °F 30.3 °F 26.8 °F 69% 30.26 in 10.0 mi WNW 6.9 mph - N/A   Unknown
6:55 PM 36.0 °F 30.3 °F 26.6 °F 69% 30.26 in 10.0 mi WNW 6.9 mph - N/A   Unknown
7:15 PM 35.6 °F 29.9 °F 26.6 °F 70% 30.26 in 10.0 mi NW 6.9 mph - N/A   Unknown
7:35 PM 35.2 °F 32.4 °F 26.6 °F 71% 30.26 in 10.0 mi NW 3.5 mph - N/A   Unknown
7:55 PM 34.7 °F - 27.3 °F 74% 30.26 in 10.0 mi Calm Calm - N/A   Unknown
8:15 PM 34.9 °F 30.8 °F 27.0 °F 73% 30.27 in 10.0 mi WNW 4.6 mph - N/A   Unknown
8:35 PM 34.7 °F 30.6 °F 26.6 °F 72% 30.27 in 10.0 mi WNW 4.6 mph - N/A   Unknown
8:55 PM 34.2 °F 29.0 °F 26.6 °F 74% 30.27 in 10.0 mi WNW 5.8 mph - N/A   Unknown
9:15 PM 34.5 °F 29.4 °F 26.2 °F 72% 30.28 in 10.0 mi WNW 5.8 mph - N/A   Unknown
9:35 PM 34.7 °F 29.6 °F 26.1 °F 71% 30.28 in 10.0 mi WNW 5.8 mph - N/A   Unknown
9:55 PM 34.5 °F 30.4 °F 25.9 °F 71% 30.28 in 10.0 mi NW 4.6 mph - N/A   Unknown
10:15 PM 34.5 °F 29.4 °F 25.3 °F 69% 30.27 in 10.0 mi WNW 5.8 mph - N/A   Unknown
10:35 PM 33.8 °F 29.6 °F 24.3 °F 68% 30.28 in 10.0 mi West 4.6 mph - N/A   Unknown
10:55 PM 33.4 °F - 23.5 °F 67% 30.29 in 10.0 mi Calm Calm - N/A   Unknown
11:15 PM 32.9 °F - 24.8 °F 72% 30.29 in 10.0 mi Calm Calm - N/A   Unknown
11:35 PM 32.0 °F - 24.3 °F 73% 30.29 in 10.0 mi Calm Calm - N/A   Unknown
11:55 PM 32.7 °F - 24.4 °F 72% 30.30 in 10.0 mi Calm Calm - N/A   Unknown